GFSCGP_925_temp_021.txt.gz
Temp
19 18 18 20 21 22 24 24 25 26 28 28 28 28 29 30 29 29 29 29 29 30 28 30 31 33 33 32 32 30 29 26 24 24 24 24 23 24 24 22 23 22 22 21
18 18 20 22 22 22 23 23 24 26 28 27 28 28 29 30 30 30 30 27 27 27 28 28 30 32 31 30 29 28 27 24 23 22 23 23 23 23 23 23 23 22 21 21
17 19 22 22 22 22 22 23 23 24 26 27 27 26 27 28 29 29 29 28 27 26 26 26 27 27 26 26 26 26 25 23 22 22 23 23 23 23 23 23 23 22 22 21
18 21 21 21 22 23 21 25 25 25 25 23 26 24 26 28 29 30 30 29 30 29 30 28 27 22 24 24 25 25 23 23 22 23 23 23 22 21 22 23 22 21 21 20
18 19 20 21 22 24 23 25 25 25 24 24 25 23 27 26 27 27 28 27 26 26 26 26 25 22 22 24 23 23 23 23 23 23 23 23 23 23 23 22 22 21 20 19
19 21 20 21 23 24 24 24 24 24 23 22 25 25 26 26 27 28 28 28 29 28 27 25 22 22 22 23 22 22 22 22 23 23 23 23 23 23 21 21 20 20 19 19
19 19 21 22 20 22 22 21 19 20 21 21 25 24 26 26 27 29 28 28 28 25 23 23 22 21 21 20 21 21 22 22 22 23 23 23 22 22 21 21 20 20 19 18
17 16 19 21 20 20 20 21 20 18 20 22 25 24 26 28 29 28 29 28 25 23 23 22 21 21 21 20 20 21 21 21 22 22 22 21 21 21 21 21 20 19 19 18
14 16 19 19 20 21 21 20 23 21 23 23 24 26 27 29 29 28 29 27 24 23 23 22 21 21 21 20 20 21 21 21 21 22 21 21 21 21 20 19 19 19 19 18
16 13 17 18 19 20 21 23 21 22 20 20 24 25 25 27 28 29 27 26 24 23 23 22 21 21 21 21 21 21 21 21 21 21 21 21 20 20 20 19 19 19 18 18
15 14 15 17 17 17 19 20 21 22 21 21 21 24 27 28 29 27 26 26 25 24 23 22 22 21 21 21 21 21 21 21 22 21 21 22 21 20 20 19 19 19 19 19
12 11 12 15 17 19 18 17 21 20 21 23 22 24 28 28 27 27 26 26 25 24 24 23 22 22 21 21 21 22 22 22 22 22 22 22 21 20 19 19 19 19 19 19
12 11 11 14 17 19 18 20 22 21 21 22 23 24 29 28 29 27 27 26 25 25 24 23 23 22 21 21 21 22 22 22 22 22 22 21 20 20 19 19 19 19 19 19
11 11 11 12 15 14 13 15 16 17 21 22 24 26 26 27 27 27 27 26 25 25 24 23 23 22 22 22 22 22 22 23 22 23 22 20 20 19 19 19 19 19 19 20
10 10 12 13 15 15 14 14 15 15 19 22 25 26 28 26 26 27 26 26 26 25 24 24 23 22 22 22 22 23 23 23 22 21 21 20 20 19 19 19 19 20 20 20
10 11 12 12 15 15 15 15 15 16 16 21 25 27 27 27 26 27 27 27 26 26 25 25 24 23 22 22 22 24 23 24 22 21 20 20 20 19 20 20 20 20 20 20
13 11 11 12 15 14 14 16 16 18 18 20 25 27 26 25 25 23 25 27 27 26 26 25 24 24 22 23 24 24 24 23 22 20 21 20 21 20 20 20 20 20 20 20
13 13 11 12 12 12 17 19 20 19 20 24 26 25 25 25 23 21 21 23 26 27 26 25 24 23 23 25 25 25 24 24 22 21 21 21 20 20 20 20 20 20 19 19
14 12 11 12 12 13 15 15 15 15 18 21 22 22 18 22 23 21 22 22 23 24 25 25 24 24 24 24 25 24 24 24 23 22 22 22 21 21 20 21 20 19 19 19
14 14 12 12 12 14 13 14 14 15 17 17 22 21 22 22 20 19 22 23 23 23 24 25 25 24 24 24 25 24 24 24 24 22 22 22 22 21 21 20 20 19 19 19
10 12 12 12 12 12 13 12 13 17 16 17 21 21 21 20 20 21 23 23 24 25 25 26 25 24 23 25 25 24 24 24 25 23 23 22 22 22 21 20 19 19 18 18
11 11 12 13 12 13 10 13 15 13 14 17 20 21 20 21 22 23 23 24 24 25 25 26 24 23 23 25 25 24 24 25 25 24 23 22 22 21 20 20 19 19 18 18
11 10 10 11 11 11 11 11 12 13 14 18 19 20 20 20 21 22 22 23 25 24 24 26 24 23 23 25 26 23 25 25 25 24 22 21 21 21 20 20 19 19 18 17
11 10 8 10 11 11 11 12 13 17 18 19 19 19 19 19 20 21 22 22 22 21 21 25 24 23 22 24 25 25 25 26 25 23 22 22 21 20 20 20 20 19 18 18
10 10 10 10 12 12 12 11 12 16 19 18 19 19 20 19 20 21 21 21 21 22 23 25 25 24 23 24 25 25 25 26 24 22 22 22 21 20 20 21 21 20 20 19
12 11 10 10 11 12 13 13 14 16 18 19 19 19 19 19 19 20 20 20 20 21 23 24 24 24 24 24 25 25 25 26 24 21 21 22 21 21 21 20 20 20 22 21

GFSCGP_925_temp_024.txt.gz
Temp
17 16 17 18 19 19 21 21 21 23 24 24 25 25 26 27 27 25 26 27 28 28 28 28 28 30 31 31 30 30 29 28 25 22 23 22 22 22 22 22 22 22 21 21
16 16 18 19 20 19 19 19 20 21 24 24 24 25 26 27 28 28 28 27 27 27 25 25 27 30 31 33 32 30 28 27 24 23 23 22 22 22 22 22 22 21 21 21
15 17 19 19 19 19 19 19 20 20 22 24 23 23 24 25 25 26 25 26 25 24 24 25 25 26 26 27 29 29 27 24 23 23 22 23 23 21 21 21 21 21 21 21
16 18 18 18 18 19 18 21 21 21 21 20 24 22 24 25 26 26 26 25 25 27 24 24 25 23 23 25 25 24 23 22 22 22 23 22 21 21 22 22 21 21 20 20
16 17 17 18 19 20 19 21 21 22 20 20 22 20 24 24 25 26 26 25 24 24 25 24 24 21 22 23 22 22 21 21 22 23 23 23 22 22 23 22 21 20 20 20
17 19 19 18 19 20 21 21 21 21 19 18 21 21 22 24 25 25 25 26 26 25 24 23 20 20 19 21 21 21 21 21 22 22 22 22 22 22 22 21 20 20 20 19
16 17 19 20 18 19 19 18 16 16 17 19 22 21 23 23 24 26 26 26 27 24 22 19 18 18 18 19 19 20 21 21 22 22 22 22 22 22 21 20 20 19 19 19
15 15 18 19 18 17 17 16 15 16 16 19 23 20 21 25 27 28 28 27 23 20 19 18 18 18 18 18 19 20 20 20 21 21 21 22 21 21 20 20 20 20 19 19
13 15 17 18 18 18 17 17 19 18 20 18 20 22 23 25 26 27 27 23 20 19 18 18 18 18 18 18 19 20 20 21 21 21 21 21 21 20 20 19 19 19 19 18
14 13 16 17 18 18 17 19 17 16 17 17 19 21 22 25 25 26 25 22 19 19 19 18 18 18 18 18 19 20 21 21 21 21 21 20 20 20 19 19 19 19 18 18
13 12 14 15 16 16 16 17 17 17 17 18 18 19 22 23 25 26 23 22 20 20 19 19 18 18 18 19 19 20 20 20 20 21 20 20 20 20 19 19 19 18 18 19
12 10 10 13 16 17 16 15 15 14 16 18 19 21 25 24 25 25 23 22 21 20 19 19 19 18 19 18 19 20 20 21 21 21 21 20 20 19 19 19 18 18 19 18
11 9 9 11 14 15 15 15 15 14 16 18 20 20 26 24 26 24 23 22 21 20 20 19 19 19 19 18 19 20 20 21 21 21 20 20 20 19 19 19 19 19 19 19
11 9 10 8 13 13 13 14 15 14 13 18 20 22 24 25 26 24 23 22 22 21 21 20 20 19 19 19 19 19 20 21 21 21 21 21 19 19 19 19 19 19 19 19
10 9 11 11 12 13 14 14 15 14 14 14 19 20 23 24 24 23 23 23 22 21 21 21 20 20 19 19 19 20 21 21 21 20 21 20 19 19 19 19 19 19 20 20
10 9 11 11 13 13 14 15 15 16 16 15 16 17 21 22 23 23 24 23 22 22 22 22 21 21 20 20 20 20 21 21 21 20 19 19 19 19 19 19 19 19 20 20
9 9 11 11 12 15 13 14 15 16 17 17 16 19 22 21 20 19 24 24 23 23 23 22 22 21 21 21 21 21 21 22 21 20 20 20 19 19 20 19 20 20 20 19
11 10 11 10 10 12 15 14 15 18 19 18 18 19 21 21 20 19 18 24 24 24 23 23 22 21 21 21 21 22 22 21 20 20 19 19 20 20 20 20 20 19 19 19
12 10 10 11 10 14 15 13 13 14 16 17 17 21 20 19 20 19 19 20 23 24 24 23 23 22 21 21 22 21 21 21 20 20 19 20 20 20 20 20 19 19 19 18
13 12 11 11 12 12 12 11 13 13 15 16 16 18 19 19 18 18 18 20 22 22 22 23 23 22 21 21 22 21 20 20 21 21 20 21 20 20 20 20 19 19 19 18
10 11 11 11 9 12 9 10 11 15 16 14 16 16 18 18 18 18 18 21 22 23 22 23 22 22 22 22 22 21 21 20 22 21 21 21 21 20 21 20 19 19 18 18
10 10 11 11 12 12 10 11 14 13 13 13 14 16 17 17 19 20 19 20 20 21 23 23 23 22 21 22 22 21 21 24 22 21 21 21 21 20 20 20 19 18 18 17
10 9 10 10 10 8 9 11 11 11 11 12 13 16 18 17 17 17 19 19 18 19 23 23 21 21 21 22 22 21 24 23 22 21 21 21 20 20 20 19 19 17 17 16
10 9 8 9 11 10 10 11 11 11 12 11 14 18 18 18 17 17 19 19 19 20 20 21 21 20 21 22 23 24 25 23 21 20 20 21 20 20 20 19 19 18 17 16
10 10 10 10 11 11 11 11 11 12 13 13 18 18 17 17 17 17 17 18 20 21 20 21 21 20 21 22 23 25 25 23 21 20 20 19 20 20 19 19 18 18 18 18
10 11 10 10 11 11 11 12 12 12 12 14 17 18 17 17 17 17 17 17 17 19 20 20 20 20 21 22 23 25 24 24 21 19 18 19 19 20 20 19 19 18 18 18

GFSCGP_925_temp_030.txt.gz
Temp
14 13 14 16 17 18 17 17 18 19 20 21 21 22 22 22 22 23 24 24 25 25 25 25 27 29 30 30 29 29 28 28 23 20 19 18 18 18 18 18 19 19 19 20
13 12 15 17 16 16 16 16 16 18 19 19 19 19 19 20 21 22 23 23 22 22 21 22 25 27 27 28 29 29 28 25 23 21 20 20 18 17 17 19 19 19 19 18
12 14 16 17 17 16 16 16 16 17 18 20 18 19 20 20 20 22 22 22 23 22 21 22 23 23 27 26 28 29 28 25 23 21 20 20 18 17 17 18 19 18 19 20
12 14 15 15 16 16 14 17 18 18 17 17 19 17 19 21 21 21 21 22 22 20 21 21 21 21 24 28 27 28 24 24 22 21 20 20 18 17 18 19 19 19 19 20
14 15 15 15 15 17 16 18 17 17 16 16 17 15 20 21 20 20 22 23 23 22 20 20 21 22 25 25 25 24 22 21 20 20 21 20 19 19 19 19 19 19 19 19
14 16 15 15 16 16 17 16 16 16 15 14 16 16 19 20 21 21 21 21 21 21 20 19 19 20 20 20 18 18 19 19 19 20 21 21 20 19 18 18 20 21 19 19
12 13 16 16 15 16 16 13 11 12 12 15 17 16 20 19 20 21 20 20 20 19 19 19 19 17 16 18 17 17 18 18 19 20 20 21 21 20 20 20 20 18 18 18
11 13 15 16 15 14 13 13 11 14 14 15 18 16 18 20 21 21 21 20 19 19 19 18 17 16 18 18 17 17 18 18 19 20 20 20 21 21 21 20 20 19 19 18
12 12 14 14 15 15 15 13 15 14 15 14 15 17 19 22 21 21 21 21 20 19 18 17 16 18 17 17 17 18 18 18 19 19 20 20 20 20 20 19 19 19 18 18
12 12 14 15 14 15 16 16 14 12 14 14 15 16 18 20 20 22 20 19 19 19 16 17 17 17 16 16 17 18 18 19 19 20 20 20 20 20 20 19 18 18 18 18
11 11 13 14 14 14 14 14 14 13 12 14 15 15 17 20 20 20 19 20 19 16 17 17 17 16 15 16 17 17 18 18 19 20 20 20 19 19 19 19 19 19 18 18
11 9 10 12 13 13 14 14 14 12 14 14 13 15 18 19 18 18 19 18 15 16 17 17 17 16 16 15 16 16 17 18 19 20 20 19 19 19 19 19 18 18 18 18
10 9 9 11 12 12 12 13 13 12 11 12 14 15 18 19 18 18 17 17 16 17 17 16 17 16 16 15 16 16 17 18 19 19 19 19 19 19 18 18 18 18 18 18
10 8 9 8 12 11 10 11 12 12 10 13 15 15 18 19 17 19 19 17 16 18 18 17 17 16 16 16 16 16 17 19 19 19 19 19 18 18 18 18 18 18 18 18
8 8 8 9 10 11 11 11 11 12 13 11 13 13 16 16 17 19 18 18 17 17 18 17 16 16 15 16 16 17 18 18 19 19 19 18 18 18 18 18 18 18 18 18
8 8 10 10 11 11 11 12 11 11 12 12 13 13 16 17 17 18 19 19 17 17 18 17 17 17 16 16 16 17 18 18 19 18 18 18 18 18 18 18 17 17 18 18
9 9 9 8 11 11 10 11 11 12 13 13 12 15 17 17 18 17 18 18 18 18 18 18 17 17 17 17 17 17 18 18 18 18 18 17 17 17 18 18 18 18 18 19
9 9 8 8 7 7 12 12 13 13 14 14 15 16 17 16 17 16 16 17 18 19 19 18 18 17 17 18 18 19 18 18 18 18 18 18 17 17 18 18 18 18 19 18
9 9 9 7 8 11 12 12 12 11 13 14 14 16 16 15 16 17 18 18 19 19 18 18 18 18 18 18 19 19 18 18 18 18 18 18 18 18 18 18 18 18 18 18
9 10 9 9 9 10 10 10 10 11 12 14 14 15 15 13 16 17 18 18 17 18 18 18 19 18 18 18 19 18 17 18 18 18 19 19 18 18 18 18 17 17 17 17
9 9 9 9 9 9 10 9 9 12 12 13 13 13 13 13 15 17 17 18 17 17 18 19 19 18 18 19 19 18 17 18 19 19 19 19 19 19 19 18 18 18 17 17
10 10 9 10 10 10 8 8 11 11 12 12 13 13 13 12 15 17 16 16 17 18 18 19 18 18 19 19 19 17 17 20 19 19 19 19 19 19 18 18 17 17 16 15
9 8 9 9 9 7 7 7 8 8 9 12 12 13 12 13 14 15 16 17 17 18 18 20 19 18 18 19 19 17 19 19 20 19 19 19 19 19 18 17 17 16 15 15
8 7 7 8 8 7 8 8 11 11 11 12 13 14 14 13 14 15 15 16 16 17 18 19 19 18 17 18 19 21 20 20 20 19 19 19 19 18 18 17 17 16 15 15
10 10 9 9 9 9 9 10 11 11 11 11 12 13 13 13 13 14 15 15 16 16 17 18 19 19 18 18 20 20 21 21 20 20 20 19 18 18 17 17 16 16 16 17
10 10 10 10 10 9 10 10 11 10 10 11 11 11 13 13 13 14 13 14 14 15 16 17 18 18 18 18 20 20 21 22 20 19 18 19 18 18 18 17 16 16 16 17

GFSCGP_925_temp_033.txt.gz
Temp
17 16 16 18 18 19 20 19 21 22 23 24 24 24 25 26 26 26 27 27 27 27 28 27 26 26 26 27 28 29 28 26 24 20 20 20 20 19 18 18 17 17 17 17
16 16 17 17 18 18 18 18 19 20 21 21 23 23 24 24 24 25 25 26 26 26 27 27 26 25 25 26 27 29 28 28 24 21 20 20 20 18 18 17 17 17 17 17
16 17 17 17 17 17 18 18 19 19 20 21 21 21 23 24 24 24 25 26 26 26 26 26 26 26 25 25 26 27 27 27 24 21 19 19 18 17 17 17 17 17 17 17
16 18 16 17 17 18 17 19 19 19 19 20 21 21 24 24 24 24 24 25 25 26 26 26 26 26 25 25 24 26 26 26 22 19 20 20 22 20 19 17 17 17 17 17
15 16 16 17 17 18 17 19 19 19 19 19 20 20 22 24 24 25 25 25 25 26 26 26 26 26 25 24 23 24 23 21 20 19 20 20 21 21 19 19 17 17 17 17
15 17 16 17 18 18 19 18 18 18 19 17 19 19 22 24 25 25 26 27 26 26 26 25 25 24 23 22 21 20 20 19 18 19 19 20 20 19 19 19 18 18 18 18
15 15 16 17 17 18 17 17 16 16 16 17 20 19 21 24 24 24 25 26 26 26 26 25 25 25 24 22 21 18 19 19 19 19 19 19 19 19 19 19 19 17 18 18
11 12 15 16 16 17 17 17 17 16 17 18 20 19 22 24 25 24 25 25 25 25 26 25 24 23 23 21 19 18 20 19 19 19 19 19 19 20 20 20 19 19 20 19
10 14 16 16 17 18 17 16 19 17 18 19 20 21 23 23 24 25 25 25 25 25 24 24 22 21 21 19 18 20 20 19 19 19 18 19 19 19 19 18 18 18 18 18
12 11 15 14 16 17 16 19 16 17 17 17 20 20 22 23 24 24 24 24 24 23 22 21 20 20 19 18 19 19 19 19 19 19 19 19 19 18 18 18 18 18 18 17
13 12 14 15 14 11 14 14 18 18 18 18 19 21 22 22 22 22 23 23 23 21 21 19 19 19 18 19 19 19 19 19 19 19 18 18 18 18 18 18 18 17 17 17
13 12 12 14 16 15 15 15 16 17 17 18 18 20 22 21 21 21 22 23 23 19 18 18 18 18 19 20 20 19 19 20 19 19 19 18 18 18 18 18 17 17 17 17
12 12 12 14 14 15 14 15 15 15 16 16 18 20 22 22 22 21 22 23 23 19 18 18 18 19 20 20 20 20 20 20 19 19 19 18 18 18 17 17 17 17 17 17
12 12 12 12 13 13 13 14 15 14 15 17 17 18 20 21 20 20 22 23 24 21 19 18 18 20 21 20 20 20 20 20 20 20 19 18 18 18 17 17 17 17 17 17
12 11 12 12 12 13 13 13 14 14 15 14 17 18 19 19 19 20 21 22 24 22 19 19 18 20 20 20 20 20 20 20 20 20 19 18 17 17 17 17 17 17 17 18
9 10 11 11 13 13 13 14 14 14 14 15 15 16 18 18 19 21 22 23 23 23 20 19 18 20 21 21 20 20 20 20 20 20 19 18 18 18 17 17 17 17 18 18
9 10 10 11 13 13 12 14 15 15 15 15 15 17 18 18 19 21 21 21 22 23 22 20 19 21 21 20 20 20 20 20 20 20 19 18 18 18 17 17 17 18 17 17
9 10 11 11 10 10 15 15 15 14 16 17 16 17 18 18 20 20 20 20 21 22 22 21 21 21 20 20 20 20 20 20 20 20 20 19 18 18 18 18 18 17 18 18
9 9 10 10 11 13 14 12 11 11 13 16 16 17 18 18 19 19 21 22 22 23 22 22 21 21 20 20 20 20 20 20 21 21 20 19 19 18 18 18 18 18 18 17
8 9 9 11 10 11 13 12 10 10 12 16 17 17 17 18 16 20 22 21 22 22 22 22 21 20 20 20 20 19 20 21 21 21 20 19 19 19 18 18 17 18 18 17
10 9 9 9 10 11 10 9 9 11 14 12 14 15 16 15 16 19 19 21 22 22 22 21 21 21 20 19 19 20 20 21 21 20 20 19 19 19 18 17 17 17 17 16
10 10 10 10 10 11 7 8 10 11 9 10 11 15 15 15 16 16 18 21 21 21 22 22 22 21 20 19 20 21 21 21 20 20 20 19 18 19 18 17 17 16 16 16
10 8 9 9 10 8 7 5 6 7 7 8 10 14 14 16 17 18 20 21 20 21 22 22 22 21 20 20 20 21 21 20 20 20 19 19 18 18 18 18 17 16 16 16
8 7 7 8 9 8 9 9 10 11 11 12 13 14 15 16 16 18 19 20 20 19 22 22 21 22 21 20 20 21 20 20 20 20 18 19 18 18 18 18 18 16 16 16
11 10 9 8 9 9 10 9 10 10 11 11 13 13 13 16 16 17 18 18 18 18 19 21 21 22 22 21 21 21 20 20 20 20 18 19 19 18 18 17 17 17 17 17
12 9 9 9 10 10 10 10 10 10 10 10 10 10 11 13 14 16 16 17 17 18 19 19 20 21 22 21 21 21 21 21 20 20 19 20 20 19 18 17 15 16 16 16

GFSCGP_925_temp_036.txt.gz
Temp
21 20 20 21 22 22 23 24 25 25 27 27 27 27 28 29 30 30 31 31 31 32 32 31 31 30 29 28 27 27 27 26 24 25 25 26 26 24 23 23 22 21 20 20
20 19 21 21 21 20 21 21 22 24 24 26 26 26 27 28 29 30 30 30 30 31 31 31 31 30 28 28 27 27 27 26 24 25 25 26 26 25 24 23 20 20 20 20
18 20 21 19 19 19 19 20 21 22 24 24 24 24 26 28 28 29 29 29 29 29 29 30 30 30 29 29 28 27 26 26 24 24 24 23 24 23 22 20 20 19 20 19
19 20 19 19 19 20 19 21 21 21 21 22 24 23 26 27 27 28 29 29 29 29 30 30 30 30 29 29 29 28 26 25 24 23 25 24 25 24 23 22 19 18 18 18
18 19 19 18 19 20 19 21 21 21 21 22 22 23 25 27 27 28 29 29 29 29 30 30 31 31 30 30 29 28 26 25 24 24 24 23 25 25 23 21 17 18 18 18
18 20 19 19 20 20 20 20 20 20 19 20 22 23 24 26 27 28 29 30 30 30 31 31 31 30 29 28 28 26 25 24 23 23 23 23 24 25 24 22 18 19 19 19
18 18 20 19 18 20 19 18 17 17 18 18 22 23 24 27 28 28 28 29 30 30 30 30 30 30 30 28 27 26 25 24 23 23 23 23 23 23 23 22 23 22 21 21
14 14 15 18 18 18 18 18 17 16 19 20 22 21 24 27 27 28 28 28 29 29 30 30 30 30 30 29 27 25 25 24 23 23 23 23 22 23 23 24 22 23 23 22
14 14 17 18 17 18 17 16 19 18 20 20 23 23 25 27 27 27 28 28 28 28 28 29 29 29 29 27 23 24 24 23 23 23 22 22 23 23 23 21 22 22 22 21
15 13 17 15 14 18 17 18 12 18 15 18 22 24 24 26 25 27 27 27 27 27 27 27 27 27 25 22 24 24 24 23 23 22 22 22 22 22 21 21 22 22 21 21
16 14 16 18 17 16 16 15 15 16 19 19 22 24 27 27 27 26 26 26 27 26 24 24 24 23 21 25 24 24 23 23 23 23 22 22 22 21 21 21 21 20 20 20
16 14 15 17 19 18 14 13 12 13 17 20 20 23 26 25 25 24 25 26 27 26 21 20 20 21 26 25 24 24 23 23 23 23 22 22 22 21 21 21 21 20 20 20
15 15 15 17 17 17 17 18 16 16 16 16 21 23 25 25 25 24 24 25 26 27 21 20 20 22 24 25 25 24 24 24 23 22 22 21 21 21 21 20 20 20 20 20
13 14 14 15 17 17 16 17 18 18 17 18 20 22 24 24 24 24 23 24 26 27 23 20 20 21 24 25 25 24 24 23 23 23 22 21 21 21 20 20 20 20 20 20
12 12 15 16 17 17 16 17 17 17 18 18 19 20 23 24 24 23 23 23 25 26 26 20 20 21 22 24 24 24 24 23 23 23 22 21 21 20 20 20 20 20 20 21
10 11 13 14 16 16 16 17 18 18 18 18 19 19 22 22 23 22 23 24 25 26 26 22 20 20 22 23 24 24 23 23 23 23 22 21 21 21 20 20 20 20 20 21
9 10 12 13 15 16 15 18 18 19 19 19 19 20 22 22 22 22 23 23 24 25 26 22 20 21 23 23 23 24 23 23 23 23 22 22 21 21 20 20 20 20 20 19
9 10 12 13 12 12 18 19 18 18 19 20 20 20 21 21 23 23 24 24 24 25 26 23 21 23 23 23 24 23 23 23 23 23 23 22 22 21 20 20 20 20 19 19
8 10 12 13 14 15 16 16 14 11 14 18 20 21 21 22 22 22 23 24 25 26 25 24 23 23 23 23 24 23 24 24 24 24 23 22 22 21 20 21 20 20 19 18
9 10 11 12 11 11 12 12 12 13 13 19 19 19 20 21 20 23 24 23 25 25 26 24 24 24 24 24 23 23 24 24 24 24 23 22 22 21 21 20 20 20 20 19
10 10 10 12 11 12 13 10 9 11 15 14 14 14 16 20 21 23 22 21 22 23 25 24 25 24 24 23 23 24 23 24 24 23 22 22 21 21 21 20 20 19 20 20
10 11 12 12 11 12 9 8 9 13 12 12 13 12 14 18 20 21 21 21 21 23 24 24 25 24 23 23 23 24 24 24 23 23 23 22 21 21 20 20 19 19 19 19
11 9 10 9 10 10 9 7 7 7 7 10 13 13 14 17 20 21 21 22 23 23 25 25 25 24 23 23 23 23 24 23 23 23 22 21 21 21 20 19 19 19 18 18
13 8 8 8 10 9 10 10 9 10 12 12 11 12 16 18 20 20 22 23 24 23 24 26 25 25 24 24 23 23 24 24 23 23 22 21 21 21 20 20 19 19 19 19
13 10 9 10 11 11 10 10 9 10 11 12 13 13 15 16 18 19 21 23 24 23 24 26 26 25 24 24 24 24 23 24 23 21 22 22 22 21 20 19 18 19 18 19
14 11 10 11 11 10 10 10 9 9 10 11 10 12 12 14 16 18 21 22 23 22 21 25 25 25 25 25 24 24 24 24 23 21 23 23 23 22 22 21 18 16 17 17